Location: Central Falls
(41.8900°N, 71.3929°W)
Time: 11:23:01
(UTC+00:00)

A-11 Canister half - Pass Details

Date: 06 December 2023
Orbit: 1512 x 1687 km, 47.2° (Epoch: 20 February)

Event Time Altitude Azimuth Distance (km) Brightness Sun altitude
Rises 05:22:27 0° 246° (WSW) 4,717 - -68.3°
Reaches altitude 10° 05:25:28 10° 246° (WSW) 3,756 - -68.0°
Maximum altitude 05:35:04 85° 336° (NNW) 1,620 - -67.0°
Drops below altitude 10° 05:45:06 10° 66° (ENE) 3,903 - -65.8°
Exits shadow 05:45:31 - 67° (ENE) 4,035 11.4 -65.8°
Sets 05:48:18 0° 68° (ENE) 4,910 12.0 -65.4°
